[[{"header":{"parameterUnit":"m.s-1","parameterCategory":2,"la1":30.2992,"la2":30.254,"lo1":-89.0895,"lo2":-89.0443,"dy":0.0025,"dx":0.0025,"nx":19,"ny":19,"refTime":"2026-05-17T21:00:00:Z","depth":"0","parameterNumber":2,"parameterNumberName":"U-component_of_CURRENTS"},"data":[0,0,0,-0.2457,-0.2461,-0.2635,-0.2636,-0.2756,-0.2756,0,0,0,0,0,0,0,0,0,0,0,-0.2372,-0.2373,-0.2457,-0.2461,-0.2635,-0.2636,-0.2755,-0.2756,0,0,0,0,0,0,0,0,0,0,0,-0.2372,-0.2372,-0.2373,-0.2462,-0.2635,-0.2636,-0.2755,-0.2649,0,0,0,0,0,0,0,0,0,0,-0.2492,-0.241,-0.2372,-0.2373,-0.2463,-0.2635,-0.2636,-0.2645,-0.2655,-0.2648,0,-0.2664,0,-0.2724,-0.2762,-0.2763,0,0,0,-0.2458,-0.2401,-0.2472,-0.2373,-0.2464,-0.2635,-0.2556,-0.2651,-0.2663,-0.2661,-0.2667,-0.2673,-0.2726,-0.2763,-0.2763,-0.2993,-0.2994,0,0,-0.2449,-0.2383,-0.2464,-0.2479,-0.2495,-0.255,-0.2561,-0.266,-0.2648,-0.2667,-0.2677,-0.2727,-0.2763,-0.2764,-0.2991,-0.2993,0,0,0,-0.2423,-0.2376,-0.2447,-0.2472,-0.2519,-0.2555,-0.2568,-0.2643,-0.2674,-0.2679,-0.2729,-0.2764,-0.2765,-0.2989,-0.2992,-0.3065,0,0,0,-0.2417,-0.2363,-0.2441,-0.2402,-0.2517,-0.2594,-0.2548,-0.2666,-0.2681,-0.2728,-0.2764,-0.2766,-0.2987,-0.299,-0.3059,-0.3053,0,0,0,-0.2367,-0.2357,-0.2378,-0.2398,-0.2482,-0.2595,-0.263,-0.2671,-0.2711,-0.2763,-0.2766,-0.2985,-0.299,-0.3053,-0.3045,-0.3009,0,0,0,-0.2294,-0.2335,-0.2375,-0.2457,-0.248,-0.2674,-0.2631,-0.2749,-0.2803,-0.2764,-0.2987,-0.2991,-0.3051,-0.3041,-0.3005,-0.2613,-0.2597,0,0,-0.2319,-0.2335,-0.2399,-0.2442,-0.2649,-0.2651,-0.2854,-0.2886,-0.2868,-0.2941,-0.2948,-0.3061,-0.3045,-0.3008,-0.2869,-0.2842,0,0,0,-0.2394,-0.2444,-0.251,-0.2638,-0.2769,-0.29,-0.297,-0.2993,-0.3067,-0.2923,-0.3131,-0.3119,-0.3091,-0.2852,-0.2834,-0.2719,-0.3012,-0.3011,-0.3011,-0.2334,-0.2478,-0.2623,-0.2815,-0.2933,-0.3094,-0.3161,-0.3211,-0.3196,-0.3252,-0.3232,-0.3325,-0.308,-0.3059,-0.2952,-0.3313,-0.3314,-0.3314,-0.3314,-0.2419,-0.2499,-0.2713,-0.2893,-0.3064,-0.3215,-0.336,-0.336,-0.3404,-0.3393,-0.3362,-0.3009,-0.3042,-0.2935,-0.332,-0.3319,-0.3318,-0.3318,-0.3317,-0.2365,-0.2418,-0.2572,-0.2827,-0.304,-0.3234,-0.3308,-0.3408,-0.3434,-0.3437,-0.3103,-0.3096,-0.2942,-0.3407,-0.3407,-0.3407,-0.3407,-0.3406,-0.3406,-0.218,-0.2359,-0.2446,-0.2738,-0.2859,-0.3039,-0.3243,-0.3241,-0.3171,-0.3131,-0.3126,-0.2955,-0.3351,-0.3279,-0.3405,-0.3405,-0.3405,-0.3405,-0.3406,-0.2036,-0.2082,-0.2209,-0.2324,-0.261,-0.2618,-0.2893,-0.2758,-0.2789,-0.2641,-0.2581,-0.2936,-0.2843,-0.2852,-0.2769,-0.2755,-0.2755,-0.2755,-0.2755,-0.1834,-0.1906,-0.1954,-0.2067,-0.2232,-0.2402,-0.212,-0.2102,-0.2108,-0.2066,-0.2264,-0.2171,-0.2202,-0.2072,-0.21,-0.2003,-0.1796,-0.1795,-0.1794,-0.1676,-0.1736,-0.1677,-0.1851,-0.2043,-0.205,-0.1661,-0.1441,-0.1535,-0.1766,-0.22,-0.2241,-0.2129,-0.2186,-0.2003,-0.205,-0.1899,0,0]},{"header":{"parameterUnit":"m.s-1","parameterCategory":2,"la1":30.2992,"la2":30.254,"lo1":-89.0895,"lo2":-89.0443,"dy":0.0025,"dx":0.0025,"nx":19,"ny":19,"refTime":"2026-05-17T21:00:00:Z","depth":"0","parameterNumber":3,"parameterNumberName":"V-component_of_CURRENTS"},"data":[0,0,0,0.0235,0.0237,0.0346,0.0347,0.0513,0.0514,0,0,0,0,0,0,0,0,0,0,0,0.0191,0.0191,0.0235,0.0237,0.0346,0.0347,0.0513,0.0514,0,0,0,0,0,0,0,0,0,0,0,0.0191,0.0191,0.0191,0.0237,0.0346,0.0347,0.0512,0.0429,0,0,0,0,0,0,0,0,0,0,0.0322,0.0259,0.0191,0.0191,0.0237,0.0346,0.0347,0.0425,0.0434,0.0463,0,0.0458,0,0.0483,0.0523,0.0524,0,0,0,0.0261,0.0251,0.0286,0.0191,0.0238,0.0346,0.0304,0.043,0.0441,0.0475,0.0461,0.0467,0.0485,0.0524,0.0525,0.051,0.0509,0,0,0.0255,0.0214,0.0279,0.0292,0.024,0.03,0.0307,0.0436,0.0433,0.0461,0.0471,0.0488,0.0525,0.0526,0.0511,0.051,0,0,0,0.0221,0.0209,0.0242,0.0285,0.0299,0.0303,0.0311,0.0427,0.0439,0.0473,0.049,0.0526,0.0528,0.0512,0.0511,0.0319,0,0,0,0.0219,0.0189,0.0238,0.0216,0.0295,0.0358,0.0298,0.043,0.0445,0.0489,0.0526,0.0529,0.0514,0.0511,0.0327,0.0211,0,0,0,0.0191,0.0186,0.0191,0.0213,0.0251,0.0357,0.0377,0.0434,0.0455,0.0524,0.053,0.0515,0.0512,0.0334,0.0225,0.0243,0,0,0,0.0158,0.0097,0.019,0.0123,0.025,0.0242,0.0376,0.0402,0.0446,0.0527,0.0514,0.0511,0.0337,0.0233,0.0249,0.0522,0.0514,0,0,0.0053,0.0084,0.0042,0.0126,0.0058,0.0231,0.017,0.0301,0.0413,0.0481,0.0481,0.0325,0.0226,0.0244,0.0354,0.0352,0,0,0,-0.0011,-0.0051,-0.0054,-0.0066,-0.0014,0.0008,0.0151,0.0205,0.0272,0.0423,0.0319,0.0262,0.0282,0.0459,0.0455,0.069,0.0497,0.0498,0.0498,-0.0194,-0.0178,-0.0274,-0.0254,-0.0243,-0.0138,-0.0116,-0.0015,0.0134,0.0123,0.0103,-0.0027,0.0156,0.0158,0.0392,0.0119,0.0118,0.0118,0.0117,-0.0396,-0.0456,-0.0447,-0.0527,-0.0471,-0.0476,-0.0371,-0.027,-0.0207,-0.0094,-0.0062,0.0241,0.0144,0.0396,0.0105,0.0107,0.0109,0.011,0.0111,-0.0518,-0.0549,-0.0594,-0.0703,-0.0754,-0.067,-0.0674,-0.0575,-0.0396,-0.0405,-0.005,-0.0042,0.0193,-0.0319,-0.0319,-0.032,-0.032,-0.0321,-0.0321,-0.0602,-0.0661,-0.0783,-0.0881,-0.0944,-0.0975,-0.0841,-0.0715,-0.0424,-0.0255,-0.0249,0.0184,-0.0158,-0.0125,-0.0329,-0.0327,-0.0326,-0.0326,-0.0325,-0.0714,-0.0734,-0.0936,-0.1035,-0.1197,-0.1173,-0.1009,-0.0521,-0.038,-0.0151,0.0267,-0.0115,-0.0004,0.0005,0.0044,-0.0104,-0.0104,-0.0104,-0.0104,-0.0757,-0.0796,-0.1049,-0.1241,-0.139,-0.1282,-0.0761,-0.0185,0.0322,0.051,0.048,0.0654,0.0635,0.0792,0.0783,0.0841,0.0897,0.0899,0.09,-0.0807,-0.0895,-0.1069,-0.1283,-0.1468,-0.129,-0.0569,0.0458,0.0932,0.0951,0.0734,0.0691,0.0953,0.0905,0.1161,0.113,0.123,0,0]}],[{"header":{"parameterUnit":"m.s-1","parameterCategory":2,"la1":30.2992,"la2":30.254,"lo1":-89.0895,"lo2":-89.0443,"dy":0.0025,"dx":0.0025,"nx":19,"ny":19,"refTime":"2026-05-17T21:00:00:Z","depth":"2","parameterNumber":2,"parameterNumberName":"U-component_of_CURRENTS"},"data":[0,0,0,-0.2285,-0.2287,-0.2351,-0.2351,-0.2265,-0.2264,0,0,0,0,0,0,0,0,0,0,0,-0.2248,-0.2249,-0.2285,-0.2287,-0.2351,-0.2351,-0.2265,-0.2264,0,0,0,0,0,0,0,0,0,0,0,-0.2248,-0.2249,-0.2249,-0.2287,-0.2351,-0.2351,-0.2265,-0.2254,0,0,0,0,0,0,0,0,0,0,-0.2211,-0.2183,-0.2249,-0.2249,-0.2288,-0.2351,-0.2351,-0.2255,-0.2255,-0.2194,0,-0.2212,0,-0.2247,-0.2256,-0.2256,0,0,0,-0.2268,-0.2183,-0.2232,-0.225,-0.2289,-0.2351,-0.2317,-0.2256,-0.2255,-0.2192,-0.2212,-0.221,-0.2245,-0.2255,-0.2255,-0.2195,-0.2195,0,0,-0.2265,-0.2223,-0.2233,-0.2232,-0.2313,-0.2315,-0.2319,-0.2257,-0.2236,-0.2212,-0.2209,-0.2244,-0.2254,-0.2253,-0.2194,-0.2195,0,0,0,-0.2267,-0.222,-0.2273,-0.2234,-0.2265,-0.2317,-0.2322,-0.2238,-0.2266,-0.2209,-0.2243,-0.2254,-0.2252,-0.2194,-0.2195,-0.2374,0,0,0,-0.2264,-0.2224,-0.2271,-0.2242,-0.2268,-0.227,-0.2303,-0.227,-0.2265,-0.2243,-0.2254,-0.2251,-0.2194,-0.2194,-0.2369,-0.2482,0,0,0,-0.2244,-0.2221,-0.2239,-0.224,-0.2283,-0.2273,-0.2295,-0.227,-0.2285,-0.2255,-0.2251,-0.2194,-0.2194,-0.2364,-0.2472,-0.2429,0,0,0,-0.2185,-0.2224,-0.2238,-0.2276,-0.2283,-0.2325,-0.2297,-0.2311,-0.2292,-0.2253,-0.2194,-0.2195,-0.2362,-0.2466,-0.2425,-0.2043,-0.2033,0,0,-0.2214,-0.2225,-0.2253,-0.2269,-0.2332,-0.2314,-0.2374,-0.2348,-0.2274,-0.2198,-0.2198,-0.2371,-0.2471,-0.2428,-0.2074,-0.2062,0,0,0,-0.2249,-0.2274,-0.2287,-0.2327,-0.2349,-0.2393,-0.238,-0.2403,-0.2399,-0.2271,-0.233,-0.2388,-0.2355,-0.2114,-0.2105,-0.2197,-0.2197,-0.2197,-0.2197,-0.2205,-0.2266,-0.231,-0.2383,-0.2394,-0.2451,-0.2522,-0.2535,-0.2443,-0.2489,-0.2504,-0.2561,-0.2307,-0.2295,-0.2447,-0.2448,-0.2448,-0.2449,-0.2449,-0.2262,-0.2282,-0.2345,-0.2422,-0.2467,-0.2517,-0.2635,-0.2672,-0.275,-0.267,-0.2625,-0.228,-0.2295,-0.2463,-0.246,-0.2458,-0.2457,-0.2456,-0.2455,-0.2213,-0.2235,-0.2313,-0.2434,-0.2525,-0.2603,-0.2703,-0.2838,-0.2866,-0.2924,-0.2467,-0.2458,-0.2658,-0.2803,-0.2803,-0.2804,-0.2804,-0.2804,-0.2804,-0.2115,-0.2202,-0.2288,-0.2456,-0.2496,-0.2609,-0.2779,-0.2792,-0.268,-0.2635,-0.2628,-0.2678,-0.2667,-0.2674,-0.281,-0.2809,-0.2808,-0.2808,-0.2807,-0.2055,-0.2117,-0.2229,-0.2291,-0.2387,-0.2318,-0.2538,-0.2376,-0.2415,-0.2262,-0.2422,-0.2429,-0.2313,-0.2312,-0.2306,-0.234,-0.234,-0.234,-0.234,-0.1982,-0.2041,-0.2106,-0.2108,-0.2103,-0.2115,-0.1845,-0.1828,-0.1904,-0.1915,-0.1935,-0.1785,-0.1809,-0.1659,-0.1673,-0.1652,-0.1516,-0.1516,-0.1515,-0.1955,-0.1979,-0.1957,-0.1962,-0.1893,-0.1737,-0.1424,-0.1263,-0.1274,-0.1498,-0.1956,-0.2253,-0.2075,-0.2098,-0.1897,-0.1909,-0.1885,0,0]},{"header":{"parameterUnit":"m.s-1","parameterCategory":2,"la1":30.2992,"la2":30.254,"lo1":-89.0895,"lo2":-89.0443,"dy":0.0025,"dx":0.0025,"nx":19,"ny":19,"refTime":"2026-05-17T21:00:00:Z","depth":"2","parameterNumber":3,"parameterNumberName":"V-component_of_CURRENTS"},"data":[0,0,0,-0.0763,-0.0761,-0.0602,-0.0601,-0.0318,-0.0316,0,0,0,0,0,0,0,0,0,0,0,-0.0816,-0.0815,-0.0763,-0.0761,-0.0602,-0.0601,-0.0319,-0.0316,0,0,0,0,0,0,0,0,0,0,0,-0.0816,-0.0815,-0.0815,-0.076,-0.0603,-0.0601,-0.0319,-0.045,0,0,0,0,0,0,0,0,0,0,-0.061,-0.0681,-0.0816,-0.0815,-0.076,-0.0603,-0.0601,-0.0457,-0.0442,-0.0379,0,-0.0378,0,-0.0355,-0.0299,-0.0298,0,0,0,-0.0724,-0.0694,-0.0661,-0.0815,-0.0759,-0.0603,-0.0663,-0.0449,-0.0432,-0.0359,-0.0374,-0.0364,-0.035,-0.0297,-0.0296,-0.002,-0.0019,0,0,-0.0733,-0.0766,-0.0673,-0.0652,-0.0745,-0.0669,-0.0659,-0.0439,-0.0426,-0.0373,-0.0357,-0.0346,-0.0295,-0.0293,-0.0021,-0.002,0,0,0,-0.0783,-0.0772,-0.0744,-0.0663,-0.0648,-0.0665,-0.0654,-0.0435,-0.043,-0.0354,-0.0342,-0.0294,-0.0291,-0.0023,-0.0021,-0.0118,0,0,0,-0.0786,-0.0804,-0.0749,-0.0764,-0.0654,-0.0551,-0.0655,-0.0445,-0.042,-0.0344,-0.0294,-0.0288,-0.0024,-0.0022,-0.0118,-0.0194,0,0,0,-0.0818,-0.0806,-0.08,-0.0767,-0.0716,-0.0554,-0.0534,-0.0438,-0.0413,-0.0298,-0.0288,-0.0025,-0.0022,-0.0118,-0.0191,-0.0169,0,0,0,-0.0839,-0.0846,-0.0801,-0.0755,-0.0718,-0.0556,-0.0535,-0.0417,-0.032,-0.0293,-0.0024,-0.0021,-0.0118,-0.019,-0.0168,-0.0031,-0.0024,0,0,-0.0862,-0.0849,-0.0808,-0.0764,-0.0627,-0.0574,-0.0423,-0.0321,-0.0255,-0.0087,-0.008,-0.0118,-0.0191,-0.0169,0.0116,0.0118,0,0,0,-0.082,-0.0805,-0.0741,-0.0651,-0.0522,-0.0429,-0.0312,-0.0263,-0.0157,-0.0194,-0.0038,-0.008,-0.0064,0.0024,0.0027,-0.0009,-0.0009,-0.001,-0.001,-0.091,-0.0801,-0.0717,-0.0581,-0.0473,-0.0313,-0.0252,-0.0162,-0.0092,-0.007,-0.0099,-0.0071,0.0026,0.0029,-0.0009,-0.001,-0.001,-0.001,-0.0011,-0.0925,-0.0887,-0.0727,-0.0639,-0.0498,-0.0393,-0.022,-0.0196,-0.0114,-0.008,-0.0058,-0.0008,0.0026,-0.0017,-0.0015,-0.0015,-0.0014,-0.0014,-0.0013,-0.1003,-0.0984,-0.0913,-0.0788,-0.069,-0.0525,-0.0453,-0.0356,-0.0224,-0.0221,-0.0059,-0.0055,-0.0174,-0.0191,-0.0191,-0.0191,-0.0191,-0.0191,-0.0191,-0.1156,-0.107,-0.1078,-0.0954,-0.092,-0.0833,-0.0632,-0.0519,-0.0285,-0.0151,-0.0148,-0.0131,-0.0125,-0.0179,-0.0195,-0.0194,-0.0194,-0.0193,-0.0193,-0.1281,-0.1281,-0.1283,-0.1265,-0.1133,-0.1032,-0.0822,-0.0435,-0.0298,-0.0122,-0.0066,-0.0068,-0.0021,-0.0019,-0.0065,-0.0052,-0.0052,-0.0052,-0.0052,-0.142,-0.1397,-0.1432,-0.1395,-0.1305,-0.1101,-0.0803,-0.0373,-0.0028,0.0063,0.0058,0.0123,0.0117,0.0174,0.0172,0.0131,0.0195,0.0195,0.0195,-0.1511,-0.1508,-0.1553,-0.1467,-0.135,-0.1124,-0.0821,-0.0336,0.0052,0.0197,0.002,-0.002,0.0067,0.006,0.0144,0.0142,0.0074,0,0]}],[{"header":{"parameterUnit":"m.s-1","parameterCategory":2,"la1":30.2992,"la2":30.254,"lo1":-89.0895,"lo2":-89.0443,"dy":0.0025,"dx":0.0025,"nx":19,"ny":19,"refTime":"2026-05-17T21:00:00:Z","depth":"4","parameterNumber":2,"parameterNumberName":"U-component_of_CURRENTS"},"data":[0,0,0,-0.0996,-0.0998,-0.1085,-0.1085,-0.1108,-0.1108,0,0,0,0,0,0,0,0,0,0,0,-0.0959,-0.096,-0.0996,-0.0998,-0.1085,-0.1085,-0.1108,-0.1108,0,0,0,0,0,0,0,0,0,0,0,-0.0959,-0.096,-0.0961,-0.0999,-0.1085,-0.1085,-0.1108,-0.106,0,0,0,0,0,0,0,0,0,0,-0.0985,-0.0958,-0.096,-0.0961,-0.0999,-0.1085,-0.1085,-0.1058,-0.1063,-0.1049,0,-0.1075,0,-0.1101,-0.1109,-0.1109,0,0,0,-0.0981,-0.0954,-0.0995,-0.0961,-0.1001,-0.1085,-0.1041,-0.1062,-0.1066,-0.1054,-0.1075,-0.1077,-0.1101,-0.1109,-0.1109,-0.1168,-0.1168,0,0,-0.0977,-0.0953,-0.0992,-0.0999,-0.1038,-0.1038,-0.1044,-0.1065,-0.1064,-0.1076,-0.1078,-0.1102,-0.1109,-0.1109,-0.1167,-0.1168,0,0,0,-0.0974,-0.095,-0.0991,-0.0997,-0.1025,-0.1041,-0.1048,-0.1063,-0.1082,-0.1079,-0.1102,-0.1109,-0.1109,-0.1167,-0.1168,-0.1233,0,0,0,-0.0971,-0.0951,-0.0989,-0.0973,-0.1026,-0.1055,-0.1044,-0.1081,-0.1085,-0.1102,-0.1109,-0.1109,-0.1166,-0.1167,-0.123,-0.1279,0,0,0,-0.0952,-0.0948,-0.0967,-0.0972,-0.1021,-0.1056,-0.1075,-0.1082,-0.1099,-0.1109,-0.111,-0.1166,-0.1167,-0.1227,-0.1273,-0.1337,0,0,0,-0.0912,-0.0943,-0.0966,-0.0993,-0.102,-0.1084,-0.1076,-0.1106,-0.1116,-0.1109,-0.1166,-0.1168,-0.1227,-0.127,-0.1333,-0.1133,0,0,0,-0.0929,-0.0944,-0.0957,-0.0981,-0.1037,-0.107,-0.1135,-0.1141,-0.1131,-0.1148,-0.1151,-0.1231,-0.1273,-0.1336,-0.1208,0,0,0,0,-0.0947,-0.0962,-0.0975,-0.1018,-0.1067,-0.1149,-0.1169,-0.1181,-0.1213,-0.1149,-0.1238,-0.1263,-0.1301,-0.1173,-0.1174,-0.1174,-0.1173,-0.1173,-0.1173,-0.0935,-0.0969,-0.1009,-0.1069,-0.1121,-0.1202,-0.1254,-0.1285,-0.1252,-0.1281,-0.1321,-0.1422,-0.1288,-0.1314,-0.1315,-0.1315,-0.1315,-0.1315,-0.1316,-0.0945,-0.0959,-0.1045,-0.1101,-0.1205,-0.1278,-0.1369,-0.1374,-0.1444,-0.1391,-0.1424,-0.1255,-0.1322,-0.1321,-0.132,-0.1319,-0.1319,-0.1318,-0.1318,-0.0877,-0.0906,-0.0968,-0.1099,-0.123,-0.134,-0.1457,-0.1505,-0.152,-0.1564,-0.143,-0.1484,-0.1474,-0.158,-0.1581,-0.1581,-0.1582,-0.1582,-0.1583,-0.0789,-0.0864,-0.0936,-0.1091,-0.12,-0.1343,-0.1514,-0.1562,-0.1606,-0.1506,-0.1596,-0.1512,-0.1504,-0.149,-0.159,-0.1589,-0.1588,-0.1587,-0.1587,-0.0692,-0.0749,-0.0839,-0.0949,-0.1204,-0.1292,-0.1497,-0.1539,-0.1589,-0.1535,-0.147,-0.1473,-0.1439,-0.1433,-0.1415,-0.1498,-0.1495,-0.1493,0,-0.0625,-0.0658,-0.0777,-0.0921,-0.1094,-0.1259,-0.1315,-0.1396,-0.1407,-0.1344,-0.1555,-0.1478,-0.1479,-0.1436,-0.1427,-0.1404,0,0,0,-0.0583,-0.0615,-0.0666,-0.0825,-0.1027,-0.1149,-0.1311,-0.1283,-0.1416,-0.1392,-0.1439,-0.1453,-0.1549,-0.1614,-0.1571,-0.156,-0.1538,0,0]},{"header":{"parameterUnit":"m.s-1","parameterCategory":2,"la1":30.2992,"la2":30.254,"lo1":-89.0895,"lo2":-89.0443,"dy":0.0025,"dx":0.0025,"nx":19,"ny":19,"refTime":"2026-05-17T21:00:00:Z","depth":"4","parameterNumber":3,"parameterNumberName":"V-component_of_CURRENTS"},"data":[0,0,0,-0.0209,-0.0209,-0.0181,-0.0181,-0.0083,-0.0082,0,0,0,0,0,0,0,0,0,0,0,-0.0214,-0.0214,-0.0209,-0.0209,-0.0181,-0.0181,-0.0083,-0.0082,0,0,0,0,0,0,0,0,0,0,0,-0.0214,-0.0214,-0.0214,-0.0209,-0.0181,-0.0181,-0.0083,-0.0116,0,0,0,0,0,0,0,0,0,0,-0.0149,-0.0169,-0.0214,-0.0214,-0.0209,-0.0181,-0.0181,-0.0118,-0.0114,-0.0082,0,-0.0087,0,-0.009,-0.0075,-0.0075,0,0,0,-0.0193,-0.0173,-0.0168,-0.0214,-0.0209,-0.0181,-0.0189,-0.0116,-0.0111,-0.0077,-0.0086,-0.0083,-0.0088,-0.0075,-0.0074,0.0053,0.0054,0,0,-0.0194,-0.0201,-0.0172,-0.0165,-0.0212,-0.019,-0.0188,-0.0113,-0.011,-0.0086,-0.0081,-0.0086,-0.0074,-0.0073,0.0052,0.0053,0,0,0,-0.0209,-0.0202,-0.02,-0.0169,-0.0173,-0.019,-0.0188,-0.0113,-0.0113,-0.008,-0.0085,-0.0073,-0.0072,0.0052,0.0053,0.0036,0,0,0,-0.021,-0.0212,-0.0201,-0.0203,-0.0175,-0.0152,-0.0189,-0.0118,-0.011,-0.0086,-0.0073,-0.0071,0.0051,0.0052,0.0035,0.0019,0,0,0,-0.0213,-0.0212,-0.0213,-0.0204,-0.02,-0.0154,-0.0149,-0.0117,-0.0114,-0.0075,-0.0071,0.005,0.0052,0.0034,0.0018,0.0049,0,0,0,-0.0214,-0.0238,-0.0214,-0.0231,-0.0201,-0.0173,-0.015,-0.0128,-0.0099,-0.0073,0.0051,0.0053,0.0034,0.0017,0.0048,-0.0046,0,0,0,-0.025,-0.0242,-0.0251,-0.0229,-0.0221,-0.0175,-0.013,-0.0091,-0.0056,0.0032,0.0034,0.0035,0.0018,0.0049,0.0049,0,0,0,0,-0.0265,-0.0271,-0.0263,-0.025,-0.0216,-0.0156,-0.0108,-0.0065,0.001,-0.0034,0.0072,0.0062,0.0082,0.0027,0.006,0.006,0.006,0.006,0.0059,-0.0309,-0.0291,-0.0294,-0.0257,-0.0221,-0.0136,-0.0074,0.0005,0.0027,0.0067,0.0076,0.0125,0.0069,0.0114,0.0114,0.0114,0.0114,0.0114,0.0114,-0.0354,-0.0361,-0.031,-0.0314,-0.0231,-0.0179,-0.0034,0.0007,0.0116,0.0115,0.0135,0.0047,0.0113,0.0113,0.0113,0.0114,0.0114,0.0114,0.0114,-0.0391,-0.0395,-0.0392,-0.0378,-0.0322,-0.0221,-0.0145,-0.0022,0.0088,0.0125,0.008,0.0129,0.0099,0.0131,0.0131,0.0132,0.0132,0.0132,0.0132,-0.0442,-0.0436,-0.0471,-0.0445,-0.0443,-0.0378,-0.0214,-0.0128,0.0011,0.0058,0.0114,0.0132,0.0131,0.0103,0.0133,0.0133,0.0133,0.0132,0.0132,-0.0496,-0.0511,-0.0568,-0.0589,-0.0578,-0.0526,-0.0373,-0.0182,-0.0092,-0.0013,0.0045,0.0049,0.0049,0.0051,0.0019,0.0025,0.0024,0.0023,0,-0.054,-0.0547,-0.0644,-0.07,-0.0707,-0.061,-0.0494,-0.0355,-0.0165,-0.017,-0.012,-0.0065,-0.0058,-0.007,-0.007,-0.0115,0,0,0,-0.0566,-0.0599,-0.0675,-0.0744,-0.0769,-0.0596,-0.0459,-0.0402,-0.0181,-0.0108,-0.0005,0.0002,0.0001,0.0137,0.0147,0.0146,0.0102,0,0]}]]